Regional Weather Roundup
Issued by NWS

Home | Current Version | Previous Version | Graphics & Text | Print | Product List | Glossary On
Versions: 1 2 3 4 5 6 7 8 9 10 11 12 13 14 15 16 17 18 19 20 21 22 23 24 25 26 27 28 29 30 31 32 33 34 35 36 37 38 39 40 41 42 43 44 45 46 47 48 49 50
000
ASUS43 KLMK 171002
RWRKY
KENTUCKY REGIONAL WEATHER ROUNDUP
NATIONAL WEATHER SERVICE LOUISVILLE KY
500 AM EST TUE JAN 17 2017

NOTE "FAIR" INDICATES FEW OR NO CLOUDS BELOW 12,000 FEET
WITH NO SIGNIFICANT WEATHER AND/OR OBSTRUCTIONS TO VISIBILITY.

KYZ001>023-026-027-061>063-070>075-171100-
WESTERN AND SOUTH CENTRAL KENTUCKY

CITY           SKY/WX    TMP DP  RH WIND       PRES   REMARKS
PADUCAH        CLOUDY    61  56  83 W17       29.92S
HENDERSON      MOCLDY    59  54  82 W9        29.90R
OWENSBORO      CLOUDY    60  58  92 S14       29.91S
HOPKINSVILLE   DRIZZLE   61  61 100 S10       29.95F
BOWLING GREEN  LGT RAIN  61  58  90 S12       29.97F
GLASGOW        NOT AVBL
$$

KYZ024-025-028>034-038-045-046-053-171100-
NORTH CENTRAL KENTUCKY

CITY           SKY/WX    TMP DP  RH WIND       PRES   REMARKS
LOUISVILLE/SDF CLOUDY    61  56  83 S18G24    29.91F
LOUISVILLE/LOU CLOUDY    59  56  89 S9        29.92F
FORT KNOX      CLOUDY    59  58  99 S13       29.91F
$$

KYZ035>037-039>044-047>052-055>060-089>105-171100-
NORTHEAST KENTUCKY

CITY           SKY/WX    TMP DP  RH WIND       PRES   REMARKS
LEXINGTON      CLOUDY    58  55  90 S13       29.98S
COVINGTON      RAIN      57  56  96 S15G24    29.91F FOG
FRANKFORT      CLOUDY    59  55  87 S13G22    29.94F
$$

KYZ054-064>069-076>088-106>120-171100-
SOUTHEAST KENTUCKY

CITY           SKY/WX    TMP DP  RH WIND       PRES   REMARKS
JACKSON        LGT RAIN  55  54  96 SW3       30.06F FOG
LONDON         LGT RAIN  57  54  89 S7        30.06F
SOMERSET       NOT AVBL
MIDDLESBORO    RAIN      59  54  83 S8G17     30.11R
MONTICELLO     LGT RAIN  60  56  86 SE7G17    30.04F
$$





USA.gov is the U.S. government's official web portal to all federal, state and local government web resources and services.